﻿測定場所 (Monitoring sites),日付 (Measurement date),時間 (Measurement time),線量率 最大値 (max) μGy/h,線量率 最小値 (min) μGy/h,線量率 平均値 (average) μGy/h,
江東 (Koto),2022-10-09,23:01～24:00,0.0443,0.0389,0.0412,
江東 (Koto),2022-10-09,22:01～23:00,0.0443,0.0398,0.0417,
江東 (Koto),2022-10-09,21:01～22:00,0.0422,0.0365,0.0397,
江東 (Koto),2022-10-09,20:01～21:00,0.0412,0.0364,0.0384,
江東 (Koto),2022-10-09,19:01～20:00,0.0455,0.0391,0.0425,
江東 (Koto),2022-10-09,18:01～19:00,0.0455,0.0412,0.0434,
江東 (Koto),2022-10-09,17:01～18:00,0.0444,0.0385,0.0418,
江東 (Koto),2022-10-09,16:01～17:00,0.0412,0.0353,0.0384,
江東 (Koto),2022-10-09,15:01～16:00,0.0385,0.0349,0.0367,
江東 (Koto),2022-10-09,14:01～15:00,0.0395,0.0348,0.0367,
江東 (Koto),2022-10-09,13:01～14:00,0.0388,0.0340,0.0365,
江東 (Koto),2022-10-09,12:01～13:00,0.0384,0.0335,0.0366,
江東 (Koto),2022-10-09,11:01～12:00,0.0398,0.0343,0.0367,
江東 (Koto),2022-10-09,10:01～11:00,0.0391,0.0345,0.0366,
江東 (Koto),2022-10-09,09:01～10:00,0.0383,0.0342,0.0366,
江東 (Koto),2022-10-09,08:01～09:00,0.0385,0.0347,0.0366,
江東 (Koto),2022-10-09,07:01～08:00,0.0388,0.0339,0.0367,
江東 (Koto),2022-10-09,06:01～07:00,0.0396,0.0350,0.0370,
江東 (Koto),2022-10-09,05:01～06:00,0.0393,0.0341,0.0370,
江東 (Koto),2022-10-09,04:01～05:00,0.0390,0.0346,0.0366,
江東 (Koto),2022-10-09,03:01～04:00,0.0392,0.0351,0.0368,
江東 (Koto),2022-10-09,02:01～03:00,0.0388,0.0344,0.0366,
江東 (Koto),2022-10-09,01:01～02:00,0.0388,0.0350,0.0368,
江東 (Koto),2022-10-09,00:01～01:00,0.0385,0.0343,0.0368,
江東 (Koto),2022-10-08,23:01～24:00,0.0398,0.0344,0.0366,
江東 (Koto),2022-10-08,22:01～23:00,0.0388,0.0345,0.0366,
江東 (Koto),2022-10-08,21:01～22:00,0.0391,0.0348,0.0368,
江東 (Koto),2022-10-08,20:01～21:00,0.0381,0.0343,0.0366,
江東 (Koto),2022-10-08,19:01～20:00,0.0380,0.0343,0.0365,
江東 (Koto),2022-10-08,18:01～19:00,0.0386,0.0347,0.0366,
江東 (Koto),2022-10-08,17:01～18:00,0.0383,0.0339,0.0366,
江東 (Koto),2022-10-08,16:01～17:00,0.0385,0.0346,0.0366,
江東 (Koto),2022-10-08,15:01～16:00,0.0384,0.0340,0.0365,
江東 (Koto),2022-10-08,14:01～15:00,0.0408,0.0338,0.0366,
江東 (Koto),2022-10-08,13:01～14:00,0.0386,0.0347,0.0368,
江東 (Koto),2022-10-08,12:01～13:00,0.0400,0.0343,0.0370,
江東 (Koto),2022-10-08,11:01～12:00,0.0385,0.0346,0.0367,
江東 (Koto),2022-10-08,10:01～11:00,0.0391,0.0341,0.0365,
江東 (Koto),2022-10-08,09:01～10:00,0.0381,0.0342,0.0364,
江東 (Koto),2022-10-08,08:01～09:00,0.0382,0.0341,0.0365,
江東 (Koto),2022-10-08,07:01～08:00,0.0386,0.0348,0.0364,
江東 (Koto),2022-10-08,06:01～07:00,0.0388,0.0340,0.0366,
江東 (Koto),2022-10-08,05:01～06:00,0.0384,0.0338,0.0367,
江東 (Koto),2022-10-08,04:01～05:00,0.0388,0.0351,0.0367,
江東 (Koto),2022-10-08,03:01～04:00,0.0387,0.0341,0.0365,
江東 (Koto),2022-10-08,02:01～03:00,0.0384,0.0347,0.0365,
江東 (Koto),2022-10-08,01:01～02:00,0.0384,0.0350,0.0367,
江東 (Koto),2022-10-08,00:01～01:00,0.0391,0.0357,0.0371,
江東 (Koto),2022-10-07,23:01～24:00,0.0407,0.0357,0.0384,
江東 (Koto),2022-10-07,22:01～23:00,0.0437,0.0378,0.0409,
江東 (Koto),2022-10-07,21:01～22:00,0.0419,0.0357,0.0393,
江東 (Koto),2022-10-07,20:01～21:00,0.0398,0.0352,0.0374,
江東 (Koto),2022-10-07,19:01～20:00,0.0437,0.0371,0.0400,
江東 (Koto),2022-10-07,18:01～19:00,0.0518,0.0418,0.0465,
江東 (Koto),2022-10-07,17:01～18:00,0.0540,0.0473,0.0507,
江東 (Koto),2022-10-07,16:01～17:00,0.0547,0.0481,0.0512,
江東 (Koto),2022-10-07,15:01～16:00,0.0517,0.0473,0.0496,
江東 (Koto),2022-10-07,14:01～15:00,0.0521,0.0453,0.0485,
江東 (Koto),2022-10-07,13:01～14:00,0.0507,0.0460,0.0481,
江東 (Koto),2022-10-07,12:01～13:00,0.0495,0.0432,0.0461,
江東 (Koto),2022-10-07,11:01～12:00,0.0456,0.0398,0.0428,
江東 (Koto),2022-10-07,10:01～11:00,0.0438,0.0384,0.0415,
江東 (Koto),2022-10-07,09:01～10:00,0.0446,0.0402,0.0424,
江東 (Koto),2022-10-07,08:01～09:00,0.0452,0.0404,0.0428,
江東 (Koto),2022-10-07,07:01～08:00,0.0432,0.0358,0.0385,
江東 (Koto),2022-10-07,06:01～07:00,0.0387,0.0343,0.0367,
江東 (Koto),2022-10-07,05:01～06:00,0.0393,0.0343,0.0369,
江東 (Koto),2022-10-07,04:01～05:00,0.0403,0.0350,0.0370,
江東 (Koto),2022-10-07,03:01～04:00,0.0397,0.0349,0.0368,
江東 (Koto),2022-10-07,02:01～03:00,0.0386,0.0353,0.0371,
江東 (Koto),2022-10-07,01:01～02:00,0.0397,0.0348,0.0370,
江東 (Koto),2022-10-07,00:01～01:00,0.0392,0.0342,0.0369,
江東 (Koto),2022-10-06,23:01～24:00,0.0393,0.0350,0.0369,
江東 (Koto),2022-10-06,22:01～23:00,0.0398,0.0347,0.0370,
江東 (Koto),2022-10-06,21:01～22:00,0.0388,0.0343,0.0367,
江東 (Koto),2022-10-06,20:01～21:00,0.0388,0.0343,0.0367,
江東 (Koto),2022-10-06,19:01～20:00,0.0388,0.0344,0.0368,
江東 (Koto),2022-10-06,18:01～19:00,0.0398,0.0342,0.0372,
江東 (Koto),2022-10-06,17:01～18:00,0.0422,0.0364,0.0389,
江東 (Koto),2022-10-06,16:01～17:00,0.0472,0.0394,0.0434,
江東 (Koto),2022-10-06,15:01～16:00,0.0502,0.0450,0.0474,
江東 (Koto),2022-10-06,14:01～15:00,0.0498,0.0451,0.0474,
江東 (Koto),2022-10-06,13:01～14:00,0.0466,0.0406,0.0440,
江東 (Koto),2022-10-06,12:01～13:00,0.0441,0.0385,0.0406,
江東 (Koto),2022-10-06,11:01～12:00,0.0433,0.0388,0.0416,
江東 (Koto),2022-10-06,10:01～11:00,0.0423,0.0371,0.0395,
江東 (Koto),2022-10-06,09:01～10:00,0.0422,0.0381,0.0402,
江東 (Koto),2022-10-06,08:01～09:00,0.0456,0.0397,0.0429,
江東 (Koto),2022-10-06,07:01～08:00,0.0450,0.0399,0.0420,
江東 (Koto),2022-10-06,06:01～07:00,0.0413,0.0355,0.0384,
江東 (Koto),2022-10-06,05:01～06:00,0.0397,0.0344,0.0374,
江東 (Koto),2022-10-06,04:01～05:00,0.0390,0.0335,0.0371,
江東 (Koto),2022-10-06,03:01～04:00,0.0391,0.0350,0.0371,
江東 (Koto),2022-10-06,02:01～03:00,0.0398,0.0352,0.0378,
江東 (Koto),2022-10-06,01:01～02:00,0.0427,0.0363,0.0396,
江東 (Koto),2022-10-06,00:01～01:00,0.0429,0.0384,0.0404,
江東 (Koto),2022-10-05,23:01～24:00,0.0462,0.0389,0.0427,
江東 (Koto),2022-10-05,22:01～23:00,0.0458,0.0404,0.0426,
江東 (Koto),2022-10-05,21:01～22:00,0.0453,0.0400,0.0426,
江東 (Koto),2022-10-05,20:01～21:00,0.0440,0.0388,0.0413,
江東 (Koto),2022-10-05,19:01～20:00,0.0453,0.0403,0.0431,
江東 (Koto),2022-10-05,18:01～19:00,0.0459,0.0377,0.0419,
江東 (Koto),2022-10-05,17:01～18:00,0.0422,0.0364,0.0394,
江東 (Koto),2022-10-05,16:01～17:00,0.0405,0.0362,0.0381,
江東 (Koto),2022-10-05,15:01～16:00,0.0429,0.0369,0.0399,
江東 (Koto),2022-10-05,14:01～15:00,0.0437,0.0389,0.0415,
江東 (Koto),2022-10-05,13:01～14:00,0.0501,0.0415,0.0461,
江東 (Koto),2022-10-05,12:01～13:00,0.0495,0.0398,0.0449,
江東 (Koto),2022-10-05,11:01～12:00,0.0424,0.0372,0.0401,
江東 (Koto),2022-10-05,10:01～11:00,0.0405,0.0357,0.0377,
江東 (Koto),2022-10-05,09:01～10:00,0.0407,0.0354,0.0377,
江東 (Koto),2022-10-05,08:01～09:00,0.0403,0.0361,0.0379,
江東 (Koto),2022-10-05,07:01～08:00,0.0402,0.0353,0.0381,
江東 (Koto),2022-10-05,06:01～07:00,0.0397,0.0350,0.0376,
江東 (Koto),2022-10-05,05:01～06:00,0.0392,0.0343,0.0374,
江東 (Koto),2022-10-05,04:01～05:00,0.0399,0.0336,0.0374,
江東 (Koto),2022-10-05,03:01～04:00,0.0393,0.0347,0.0371,
江東 (Koto),2022-10-05,02:01～03:00,0.0383,0.0350,0.0371,
江東 (Koto),2022-10-05,01:01～02:00,0.0398,0.0351,0.0372,
江東 (Koto),2022-10-05,00:01～01:00,0.0395,0.0348,0.0370,
江東 (Koto),2022-10-04,23:01～24:00,0.0395,0.0349,0.0370,
江東 (Koto),2022-10-04,22:01～23:00,0.0392,0.0355,0.0372,
江東 (Koto),2022-10-04,21:01～22:00,0.0398,0.0346,0.0371,
江東 (Koto),2022-10-04,20:01～21:00,0.0388,0.0347,0.0371,
江東 (Koto),2022-10-04,19:01～20:00,0.0399,0.0342,0.0370,
江東 (Koto),2022-10-04,18:01～19:00,0.0395,0.0348,0.0369,
江東 (Koto),2022-10-04,17:01～18:00,0.0396,0.0348,0.0369,
江東 (Koto),2022-10-04,16:01～17:00,0.0397,0.0353,0.0372,
江東 (Koto),2022-10-04,15:01～16:00,0.0393,0.0348,0.0370,
江東 (Koto),2022-10-04,14:01～15:00,0.0384,0.0350,0.0370,
江東 (Koto),2022-10-04,13:01～14:00,0.0395,0.0346,0.0370,
江東 (Koto),2022-10-04,12:01～13:00,0.0388,0.0348,0.0372,
江東 (Koto),2022-10-04,11:01～12:00,0.0386,0.0351,0.0368,
江東 (Koto),2022-10-04,10:01～11:00,0.0386,0.0345,0.0365,
江東 (Koto),2022-10-04,09:01～10:00,0.0393,0.0353,0.0370,
江東 (Koto),2022-10-04,08:01～09:00,0.0384,0.0347,0.0368,
江東 (Koto),2022-10-04,07:01～08:00,0.0391,0.0346,0.0370,
江東 (Koto),2022-10-04,06:01～07:00,0.0391,0.0345,0.0369,
江東 (Koto),2022-10-04,05:01～06:00,0.0384,0.0347,0.0369,
江東 (Koto),2022-10-04,04:01～05:00,0.0386,0.0345,0.0368,
江東 (Koto),2022-10-04,03:01～04:00,0.0389,0.0345,0.0369,
江東 (Koto),2022-10-04,02:01～03:00,0.0391,0.0347,0.0370,
江東 (Koto),2022-10-04,01:01～02:00,0.0385,0.0347,0.0366,
江東 (Koto),2022-10-04,00:01～01:00,0.0387,0.0349,0.0370,
江東 (Koto),2022-10-03,23:01～24:00,0.0393,0.0336,0.0368,
江東 (Koto),2022-10-03,22:01～23:00,0.0398,0.0347,0.0370,
江東 (Koto),2022-10-03,21:01～22:00,0.0395,0.0344,0.0369,
江東 (Koto),2022-10-03,20:01～21:00,0.0388,0.0350,0.0370,
江東 (Koto),2022-10-03,19:01～20:00,0.0391,0.0353,0.0371,
江東 (Koto),2022-10-03,18:01～19:00,0.0391,0.0356,0.0371,
江東 (Koto),2022-10-03,17:01～18:00,0.0395,0.0347,0.0371,
江東 (Koto),2022-10-03,16:01～17:00,0.0393,0.0350,0.0371,
江東 (Koto),2022-10-03,15:01～16:00,0.0393,0.0339,0.0369,
江東 (Koto),2022-10-03,14:01～15:00,0.0393,0.0353,0.0368,
江東 (Koto),2022-10-03,13:01～14:00,0.0398,0.0358,0.0375,
江東 (Koto),2022-10-03,12:01～13:00,0.0388,0.0346,0.0371,
江東 (Koto),2022-10-03,11:01～12:00,0.0396,0.0353,0.0373,
江東 (Koto),2022-10-03,10:01～11:00,0.0391,0.0351,0.0372,
江東 (Koto),2022-10-03,09:01～10:00,0.0389,0.0352,0.0369,
江東 (Koto),2022-10-03,08:01～09:00,0.0391,0.0347,0.0371,
江東 (Koto),2022-10-03,07:01～08:00,0.0391,0.0348,0.0372,
江東 (Koto),2022-10-03,06:01～07:00,0.0400,0.0352,0.0374,
江東 (Koto),2022-10-03,05:01～06:00,0.0390,0.0350,0.0373,
江東 (Koto),2022-10-03,04:01～05:00,0.0393,0.0350,0.0373,
江東 (Koto),2022-10-03,03:01～04:00,0.0396,0.0355,0.0372,
江東 (Koto),2022-10-03,02:01～03:00,0.0393,0.0346,0.0370,
江東 (Koto),2022-10-03,01:01～02:00,0.0384,0.0338,0.0367,
江東 (Koto),2022-10-03,00:01～01:00,0.0392,0.0350,0.0370,
